This is the latest recevied weather packets stored in our database for station/object SLG. If no packets are shown the sender has not sent any weather packets the latest 10 day(s).
| Time | Temp. | Humidity | Pressure | Rain* | Wind** | Luminosity | Snow |
|---|---|---|---|---|---|---|---|
| 1777962731 | 11.67° C | 90% | 1006.2 hPa | 0 mm | - | - | - |
| 1777960932 | 8.89° C | 89% | 1006.4 hPa | 0 mm | - | - | - |
| 1777959131 | 7.22° C | 86% | 1006.5 hPa | 0 mm | - | - | - |
| 1777957331 | 7.22° C | 84% | 1006.5 hPa | 0 mm | - | - | - |
| 1777955531 | 7.22° C | 83% | 1006.6 hPa | 0 mm | - | - | - |
| 1777953731 | 7.78° C | 82% | 1006.7 hPa | 0 mm | - | - | - |
| 1777951931 | 7.78° C | 81% | 1006.7 hPa | 0 mm | - | - | - |
| 1777950133 | 8.33° C | 80% | 1007 hPa | 0 mm | - | - | - |
| 1777948331 | 8.33° C | 79% | 1007.3 hPa | 0 mm | - | - | - |
| 1777946531 | 8.89° C | 77% | 1007.4 hPa | 0 mm | - | - | - |
| 1777944731 | 9.44° C | 76% | 1007.7 hPa | 0 mm | - | - | - |
| 1777942931 | 10° C | 74% | 1008.1 hPa | 0 mm | - | - | - |
| 1777941128 | 10.56° C | 73% | 1008.4 hPa | 0 mm | - | - | - |
| 1777939330 | 11.67° C | 71% | 1008.5 hPa | 0 mm | - | - | - |
| 1777937529 | 12.22° C | 68% | 1008.5 hPa | 0 mm | - | - | - |
| 1777935730 | 13.33° C | 67% | 1008.7 hPa | 0 mm | - | - | - |
| 1777933935 | 13.89° C | 67% | 1008.8 hPa | 0 mm | - | - | - |
| 1777932129 | 13.89° C | 63% | 1008.8 hPa | 0 mm | - | - | - |
| 1777930329 | 14.44° C | 62% | 1009 hPa | 0 mm | - | - | - |
| 1777928529 | 15° C | 59% | 1009 hPa | 0 mm | - | - | - |
| 1777926729 | 16.11° C | 57% | 1009 hPa | 0 mm | - | - | - |
| 1777924929 | 16.67° C | 53% | 1008.8 hPa | 0 mm | - | - | - |
| 1777923129 | 17.78° C | 48% | 1008.8 hPa | 0 mm | - | - | - |
| 1777921329 | 18.33° C | 44% | 1008.8 hPa | 0 mm | - | - | - |
| 1777919529 | 18.89° C | 42% | 1008.8 hPa | 0 mm | - | - | - |
* Rain since midnight (hover to see other rain measurements)
** Current wind speed in m/s (hover to see current wind gust speed)